TimeEDT,TemperatureF,Dew PointF,Humidity,Sea Level PressureIn,VisibilityMPH,Wind Direction,Wind SpeedMPH,Gust SpeedMPH,PrecipitationIn,Events,Conditions,WindDirDegrees,DateUTC
12:54 AM,66.9,66.0,97,30.12,-9999.0,Calm,Calm,-,N/A,,Unknown,0,2012-10-04 04:54:00
1:54 AM,66.9,66.0,97,30.13,-9999.0,Calm,Calm,-,N/A,,Unknown,0,2012-10-04 05:54:00
2:54 AM,66.0,64.9,96,30.13,-9999.0,Calm,Calm,-,N/A,,Unknown,0,2012-10-04 06:54:00
3:54 AM,66.0,64.9,96,30.13,-9999.0,Calm,Calm,-,N/A,,Unknown,0,2012-10-04 07:54:00
4:54 AM,66.0,64.9,96,30.12,-9999.0,Calm,Calm,-,N/A,,Unknown,0,2012-10-04 08:54:00
5:54 AM,64.9,64.0,97,30.12,-9999.0,Calm,Calm,-,N/A,,Unknown,0,2012-10-04 09:54:00
6:54 AM,64.9,64.0,97,30.14,-9999.0,Calm,Calm,-,N/A,,Unknown,0,2012-10-04 10:54:00
7:54 AM,64.9,64.0,97,30.14,-9999.0,Calm,Calm,-,N/A,,Unknown,0,2012-10-04 11:54:00
8:54 AM,66.0,64.9,96,30.13,-9999.0,Calm,Calm,-,N/A,,Unknown,0,2012-10-04 12:54:00
9:54 AM,66.9,64.9,93,30.14,-9999.0,SSE,3.5,-,N/A,,Unknown,150,2012-10-04 13:54:00
10:54 AM,69.1,66.0,90,30.09,-9999.0,Variable,4.6,-,0.01,,Unknown,0,2012-10-04 14:54:00
11:54 AM,73.0,68.0,84,30.11,-9999.0,Calm,Calm,-,N/A,,Unknown,0,2012-10-04 15:54:00
12:54 PM,73.0,68.0,84,30.09,-9999.0,Calm,Calm,-,N/A,,Unknown,0,2012-10-04 16:54:00
1:54 PM,73.9,68.0,82,30.07,-9999.0,Calm,Calm,-,N/A,,Unknown,0,2012-10-04 17:54:00
2:54 PM,72.0,68.0,87,30.07,-9999.0,Calm,Calm,-,N/A,,Unknown,0,2012-10-04 18:54:00
3:54 PM,69.1,68.0,96,30.06,-9999.0,Calm,Calm,-,0.57,,Unknown,0,2012-10-04 19:54:00
4:54 PM,70.0,66.9,90,30.06,-9999.0,Calm,Calm,-,0.04,,Unknown,0,2012-10-04 20:54:00
5:54 PM,70.0,66.9,90,30.06,-9999.0,Calm,Calm,-,N/A,,Unknown,0,2012-10-04 21:54:00
6:54 PM,66.9,66.0,97,30.06,-9999.0,Calm,Calm,-,N/A,,Unknown,0,2012-10-04 22:54:00
7:54 PM,64.9,64.0,97,30.07,-9999.0,Calm,Calm,-,N/A,,Unknown,0,2012-10-04 23:54:00
8:54 PM,62.1,61.0,96,30.07,-9999.0,Calm,Calm,-,N/A,,Unknown,0,2012-10-05 00:54:00
9:54 PM,63.0,63.0,100,30.08,-9999.0,Calm,Calm,-,N/A,,Unknown,0,2012-10-05 01:54:00
10:54 PM,62.1,61.0,96,30.09,-9999.0,Calm,Calm,-,N/A,,Unknown,0,2012-10-05 02:54:00
11:54 PM,61.0,61.0,100,30.07,-9999.0,Calm,Calm,-,N/A,,Unknown,0,2012-10-05 03:54:00